TimeCST,TemperatureF,Dew PointF,Humidity,Sea Level PressureIn,VisibilityMPH,Wind Direction,Wind SpeedMPH,Gust SpeedMPH,PrecipitationIn,Events,Conditions,WindDirDegrees,DateUTC
12:53 AM,48.0,37.0,66,29.68,10.0,SSE,11.5,-,N/A,,Clear,160,2013-11-04 06:53:00
1:53 AM,48.0,37.0,66,29.69,10.0,SSE,12.7,19.6,N/A,,Clear,160,2013-11-04 07:53:00
2:53 AM,46.0,37.0,71,29.70,10.0,SSE,8.1,-,N/A,,Clear,160,2013-11-04 08:53:00
3:53 AM,44.1,36.0,73,29.74,10.0,WNW,3.5,-,N/A,,Clear,300,2013-11-04 09:53:00
4:53 AM,39.0,35.1,86,29.78,10.0,Calm,Calm,-,N/A,,Clear,0,2013-11-04 10:53:00
5:53 AM,41.0,36.0,82,29.81,10.0,North,13.8,-,N/A,,Clear,350,2013-11-04 11:53:00
6:53 AM,39.9,35.1,83,29.84,10.0,NNW,9.2,-,N/A,,Clear,330,2013-11-04 12:53:00
7:53 AM,43.0,34.0,71,29.91,10.0,NNW,15.0,-,N/A,,Mostly Cloudy,330,2013-11-04 13:53:00
8:53 AM,46.9,33.1,59,29.93,10.0,North,18.4,25.3,N/A,,Mostly Cloudy,350,2013-11-04 14:53:00
9:53 AM,50.0,34.0,54,29.97,10.0,North,17.3,23.0,N/A,,Clear,350,2013-11-04 15:53:00
10:53 AM,51.1,35.1,54,30.02,10.0,NNW,19.6,-,N/A,,Clear,340,2013-11-04 16:53:00
11:53 AM,52.0,35.1,53,30.03,10.0,North,19.6,-,N/A,,Clear,350,2013-11-04 17:53:00
12:53 PM,53.1,32.0,45,30.02,10.0,North,12.7,-,N/A,,Clear,360,2013-11-04 18:53:00
1:53 PM,52.0,32.0,47,30.02,10.0,NNE,9.2,-,N/A,,Clear,20,2013-11-04 19:53:00
2:53 PM,54.0,32.0,43,30.03,10.0,North,8.1,-,N/A,,Scattered Clouds,350,2013-11-04 20:53:00
3:53 PM,54.0,30.9,41,30.04,10.0,NE,6.9,-,N/A,,Partly Cloudy,50,2013-11-04 21:53:00
4:53 PM,50.0,30.9,48,30.08,10.0,North,5.8,-,N/A,,Clear,10,2013-11-04 22:53:00
5:53 PM,42.1,30.0,62,30.10,10.0,NNE,6.9,-,N/A,,Clear,30,2013-11-04 23:53:00
6:53 PM,39.0,30.0,70,30.13,10.0,NE,3.5,-,N/A,,Clear,40,2013-11-05 00:53:00
7:53 PM,37.9,30.0,73,30.14,10.0,Calm,Calm,-,N/A,,Clear,0,2013-11-05 01:53:00
8:53 PM,35.1,28.9,78,30.14,10.0,Calm,Calm,-,N/A,,Clear,0,2013-11-05 02:53:00
9:53 PM,34.0,28.9,82,30.16,10.0,North,3.5,-,N/A,,Clear,10,2013-11-05 03:53:00
10:53 PM,35.1,28.9,78,30.16,10.0,Calm,Calm,-,N/A,,Clear,0,2013-11-05 04:53:00
11:53 PM,32.0,28.9,88,30.15,10.0,NE,3.5,-,N/A,,Clear,50,2013-11-05 05:53:00